[[{"header":{"parameterUnit":"m.s-1","parameterCategory":1,"la1":30.2991,"la2":30.254,"lo1":-89.0895,"lo2":-89.0444,"dy":0.0017,"dx":0.0017,"nx":28,"ny":28,"refTime":"2024-05-10T21:00:00:Z","depth":0,"parameterNumber":2,"parameterNumberName":"U-component_of_WINDS"},"data":[0,0,0,0,0,0,0,0,0,0,0,0,0,0,0,0,0,0,0,0,0,0,0,0,0,0,0,0,0,0,0,0,0,0,0,0,0,0,0,0,0,0,0,0,0,0,0,0,0,0,0,0,0,0,0,0,0,0,0.8615,0.8615,0,0.8665,0.8665,0.8666,0.8688,0.8688,0.8688,0.8688,0.874,0.8742,0.8743,0,0,0,0,0,0,0,0,0,0,0,0,0,0.854,0.8542,0.8614,0.8615,0.8616,0.8664,0.8665,0.8666,0.8688,0.8688,0.8688,0.8688,0.874,0.8741,0.8743,0,0,0,0,0,0,0,0,0,0,0,0,0,0.858,0.8542,0.8614,0.8633,0.8635,0.8664,0.8665,0.8666,0.8688,0.8688,0.8688,0.8688,0.8739,0.8741,0.8743,0.8759,0,0,0.875,0.8751,0,0,0,0,0,0,0,0,0.8577,0.8582,0.8629,0.8631,0.8634,0.867,0.8658,0.8697,0.8688,0.8668,0.8688,0.8688,0.8717,0.8721,0.8731,0.8761,0.8763,0.875,0.8752,0.8752,0.8753,0,0,0,0,0,0,0,0.8575,0.858,0.8634,0.863,0.8633,0.8639,0.8645,0.8666,0.8692,0.867,0.8671,0.8677,0.8718,0.8728,0.8732,0.8764,0.875,0.8752,0.8753,0.8754,0.8811,0.8811,0,0,0,0,0,0,0.8569,0.8578,0.8633,0.8636,0.8605,0.864,0.8647,0.8658,0.8692,0.8697,0.8677,0.8678,0.8725,0.8729,0.8734,0.8755,0.8752,0.8754,0.8756,0.8811,0.8811,0.8812,0,0,0,0,0,0,0.8567,0.8573,0.8631,0.8607,0.8615,0.8642,0.8655,0.866,0.867,0.8698,0.8703,0.8682,0.8725,0.8731,0.8753,0.8757,0.8755,0.8757,0.8811,0.8811,0.8811,0.8796,0,0,0,0,0,0,0.8565,0.8573,0.8578,0.8607,0.8616,0.8648,0.8655,0.8661,0.8673,0.8675,0.8704,0.8709,0.8725,0.8749,0.8755,0.876,0.8759,0.8811,0.8811,0.8811,0.8796,0.8795,0.8795,0,0,0,0,0,0.8562,0.8572,0.8578,0.8585,0.8624,0.8648,0.8653,0.8671,0.8673,0.868,0.8698,0.8708,0.8756,0.8751,0.8758,0.8763,0.881,0.8811,0.8811,0.8796,0.8795,0.8795,0,0,0,0,0,0,0.8542,0.8576,0.8583,0.8603,0.8622,0.8652,0.866,0.867,0.869,0.869,0.8713,0.8719,0.8739,0.8754,0.8748,0.8781,0.8784,0.8786,0.877,0.877,0.8769,0.8765,0.8761,0,0,0,0,0,0.854,0.8556,0.8585,0.8599,0.8609,0.8633,0.8644,0.8656,0.8678,0.8686,0.8706,0.8727,0.8747,0.8759,0.8779,0.8799,0.8806,0.8806,0.8805,0.8805,0.8806,0.8818,0.8819,0.8813,0.8813,0.8813,0,0,0.8535,0.8556,0.8565,0.8596,0.8613,0.863,0.8639,0.8657,0.867,0.8689,0.8711,0.8726,0.8751,0.8772,0.8782,0.8785,0.8809,0.8805,0.8805,0.8806,0.8819,0.8819,0.882,0.8813,0.8813,0.8813,0,0,0.8536,0.8553,0.8567,0.8584,0.8609,0.8625,0.8629,0.8657,0.8668,0.869,0.8705,0.8722,0.8755,0.8772,0.8786,0.8795,0.8805,0.8801,0.8798,0.881,0.881,0.8811,0.8814,0.8815,0.8802,0.8802,0.8802,0,0.8528,0.8553,0.8573,0.859,0.8604,0.8622,0.8637,0.8652,0.8683,0.8692,0.8695,0.8738,0.8756,0.8781,0.8784,0.8794,0.8799,0.8797,0.8808,0.8809,0.881,0.8814,0.8815,0.8801,0.8801,0.8801,0.8801,0,0.8542,0.856,0.8568,0.8597,0.8612,0.8628,0.8651,0.8663,0.8675,0.8691,0.8714,0.8737,0.8762,0.8769,0.8781,0.8797,0.8798,0.8804,0.8808,0.8809,0.8813,0.8815,0.88,0.88,0.8801,0.8801,0,0,0.853,0.8571,0.8573,0.8587,0.8617,0.8632,0.8649,0.8674,0.8684,0.8705,0.8721,0.8749,0.8756,0.8771,0.8785,0.8795,0.8802,0.8801,0.8802,0.88,0.8822,0.8817,0.8818,0.8809,0.881,0.881,0.882,0,0.8535,0.8566,0.8585,0.8608,0.8626,0.8644,0.866,0.868,0.8696,0.8714,0.8732,0.8752,0.8759,0.8768,0.8779,0.8799,0.8807,0.8798,0.8825,0.8825,0.8817,0.882,0.8814,0.8822,0.8822,0.8822,0.8822,0,0.8544,0.8565,0.859,0.8619,0.8627,0.864,0.8665,0.8681,0.8706,0.8717,0.8734,0.8749,0.8769,0.8771,0.88,0.8794,0.8806,0.8818,0.8818,0.8821,0.8823,0.8823,0.8826,0.8827,0.8825,0.8825,0.8824,0,0.8533,0.8567,0.8587,0.8598,0.8633,0.8642,0.8657,0.8681,0.8695,0.8717,0.8726,0.875,0.8763,0.8782,0.8803,0.8803,0.883,0.8834,0.884,0.8839,0.8844,0.8843,0.8848,0.8852,0.8852,0.8852,0.8852,0,0.8536,0.8551,0.8582,0.8594,0.8612,0.8635,0.8652,0.8668,0.869,0.8706,0.8724,0.8739,0.8766,0.8785,0.8802,0.8824,0.8829,0.8839,0.8844,0.8837,0.8836,0.8845,0.8845,0.8853,0.8852,0.8852,0.8852,0,0.8526,0.8548,0.8571,0.8602,0.861,0.8622,0.8649,0.8662,0.8679,0.87,0.8706,0.8734,0.8757,0.878,0.8811,0.8823,0.8844,0.885,0.8835,0.8838,0.8842,0.8841,0.8853,0.8856,0.8858,0.8858,0.8858,0,0.8526,0.8538,0.8571,0.8583,0.8597,0.8616,0.8631,0.8654,0.8668,0.8698,0.8708,0.8732,0.8753,0.8789,0.8813,0.8837,0.8844,0.8846,0.8847,0.8841,0.8844,0.8843,0.8844,0.8845,0.8845,0.8845,0.8845,0,0.8524,0.8535,0.8554,0.8578,0.8595,0.8615,0.8636,0.8645,0.8672,0.8688,0.8712,0.8728,0.876,0.8785,0.8812,0.8829,0.8842,0.8845,0.8847,0.8841,0.8832,0.8837,0.8833,0.8844,0.8844,0.8844,0.8844,0.8844,0.8519,0.8531,0.8556,0.8578,0.8596,0.8615,0.8629,0.8649,0.8669,0.8697,0.871,0.8734,0.876,0.8798,0.8814,0.8834,0.8837,0.8841,0.8842,0.8843,0.8841,0.8829,0.8839,0.8839,0.8839,0.8839,0.884,0,0.8518,0.8536,0.8555,0.8584,0.8601,0.8612,0.8636,0.865,0.8671,0.8694,0.8714,0.8742,0.8767,0.8792,0.8818,0.8829,0.8836,0.8836,0.8835,0.8838,0.8837,0.8832,0.883,0.883,0.883,0.883,0.883,0.883,0.852,0.854,0.8554,0.8584,0.8602,0.8625,0.8638,0.8657,0.8675,0.8705,0.8725,0.8742,0.8766,0.8795,0.8818,0.8825,0.8834,0.8831,0.884,0.8838,0.8838,0.8839,0.8835,0.8833,0.8833,0.884,0.884,0.884]},{"header":{"parameterUnit":"m.s-1","parameterCategory":1,"la1":30.2991,"la2":30.254,"lo1":-89.0895,"lo2":-89.0444,"dy":0.0017,"dx":0.0017,"nx":28,"ny":28,"refTime":"2024-05-10T21:00:00:Z","depth":0,"parameterNumber":3,"parameterNumberName":"V-component_of_WINDS"},"data":[0,0,0,0,0,0,0,0,0,0,0,0,0,0,0,0,0,0,0,0,0,0,0,0,0,0,0,0,0,0,0,0,0,0,0,0,0,0,0,0,0,0,0,0,0,0,0,0,0,0,0,0,0,0,0,0,0,0,-1.0467,-1.0468,0,-1.0619,-1.0621,-1.0622,-1.0715,-1.0716,-1.0716,-1.0717,-1.0874,-1.0878,-1.0882,0,0,0,0,0,0,0,0,0,0,0,0,0,-1.0259,-1.0263,-1.0466,-1.0468,-1.047,-1.0619,-1.0621,-1.0623,-1.0715,-1.0716,-1.0716,-1.0717,-1.0873,-1.0878,-1.0882,0,0,0,0,0,0,0,0,0,0,0,0,0,-1.0374,-1.0264,-1.0466,-1.0534,-1.0542,-1.0618,-1.0621,-1.0623,-1.0715,-1.0716,-1.0717,-1.0717,-1.0872,-1.0877,-1.0883,-1.0904,0,0,-1.09,-1.0903,0,0,0,0,0,0,0,0,-1.0368,-1.0382,-1.0522,-1.053,-1.0538,-1.0649,-1.0606,-1.0718,-1.0715,-1.0649,-1.0717,-1.0718,-1.0799,-1.0811,-1.0838,-1.0911,-1.0918,-1.0901,-1.0904,-1.0906,-1.0908,0,0,0,0,0,0,0,-1.0359,-1.0376,-1.0527,-1.0524,-1.0534,-1.0559,-1.0576,-1.0627,-1.0718,-1.0655,-1.0662,-1.0679,-1.0803,-1.0832,-1.0842,-1.092,-1.09,-1.0905,-1.0909,-1.0911,-1.1023,-1.1023,0,0,0,0,0,0,-1.034,-1.0368,-1.0522,-1.0531,-1.0453,-1.0562,-1.0581,-1.0613,-1.0718,-1.0735,-1.0678,-1.0683,-1.0822,-1.0835,-1.0848,-1.0882,-1.0906,-1.0912,-1.0915,-1.1023,-1.1023,-1.1023,0,0,0,0,0,0,-1.0335,-1.0353,-1.0516,-1.0452,-1.0475,-1.0564,-1.06,-1.0615,-1.0644,-1.0736,-1.0753,-1.069,-1.0823,-1.084,-1.089,-1.0889,-1.0914,-1.0919,-1.1024,-1.1023,-1.1023,-1.0949,0,0,0,0,0,0,-1.0329,-1.0351,-1.0359,-1.0451,-1.0478,-1.0554,-1.0599,-1.0618,-1.0653,-1.0661,-1.0752,-1.0767,-1.0825,-1.0881,-1.0896,-1.0897,-1.0924,-1.1025,-1.1024,-1.1023,-1.0952,-1.0946,-1.094,0,0,0,0,0,-1.0321,-1.0331,-1.0358,-1.0376,-1.0489,-1.0553,-1.0569,-1.0634,-1.0653,-1.0662,-1.0722,-1.0764,-1.0886,-1.0885,-1.0903,-1.0906,-1.1025,-1.1024,-1.1023,-1.0954,-1.0947,-1.0941,0,0,0,0,0,0,-1.0236,-1.0345,-1.0376,-1.0416,-1.0475,-1.0569,-1.0583,-1.0624,-1.0679,-1.0684,-1.0764,-1.0783,-1.0826,-1.0871,-1.0868,-1.0934,-1.0961,-1.0963,-1.0903,-1.0896,-1.0891,-1.0879,-1.0929,0,0,0,0,0,-1.0221,-1.0264,-1.0357,-1.0383,-1.0411,-1.0492,-1.0522,-1.0568,-1.0633,-1.0658,-1.0721,-1.0783,-1.0836,-1.0868,-1.0922,-1.0959,-1.0981,-1.097,-1.0964,-1.0959,-1.096,-1.0987,-1.0983,-1.1019,-1.1019,-1.1019,0,0,-1.0192,-1.0257,-1.0279,-1.0368,-1.0419,-1.0463,-1.0512,-1.0555,-1.0589,-1.0665,-1.0716,-1.0765,-1.0839,-1.0884,-1.0906,-1.0922,-1.0956,-1.0958,-1.0953,-1.0957,-1.0985,-1.0982,-1.0979,-1.1019,-1.1019,-1.1019,0,0,-1.0162,-1.0214,-1.0243,-1.0294,-1.0371,-1.0425,-1.0432,-1.0521,-1.0556,-1.0609,-1.0667,-1.0709,-1.0797,-1.0849,-1.0887,-1.0879,-1.0922,-1.0894,-1.0865,-1.089,-1.0887,-1.0885,-1.0884,-1.0883,-1.0895,-1.0895,-1.0895,0,-1.0116,-1.0183,-1.0253,-1.0294,-1.0333,-1.0403,-1.0435,-1.0481,-1.0571,-1.0597,-1.0613,-1.0728,-1.0783,-1.0842,-1.084,-1.0867,-1.088,-1.0884,-1.0881,-1.088,-1.0879,-1.088,-1.0879,-1.0892,-1.0892,-1.0892,-1.0893,0,-1.0125,-1.0171,-1.0185,-1.0271,-1.0311,-1.0347,-1.0424,-1.0456,-1.0499,-1.0552,-1.0607,-1.0676,-1.0745,-1.0763,-1.0805,-1.0829,-1.0837,-1.0866,-1.0895,-1.0871,-1.0873,-1.0873,-1.0886,-1.0888,-1.0889,-1.089,0,0,-1.0043,-1.0169,-1.0173,-1.0215,-1.0306,-1.0343,-1.0384,-1.0452,-1.048,-1.054,-1.0577,-1.0652,-1.0681,-1.0724,-1.0773,-1.0794,-1.0787,-1.0822,-1.0825,-1.0814,-1.082,-1.0798,-1.0797,-1.0815,-1.0816,-1.0816,-1.0815,0,-1.0028,-1.0102,-1.0168,-1.0219,-1.0264,-1.0333,-1.0369,-1.043,-1.0481,-1.0527,-1.0584,-1.0637,-1.067,-1.0697,-1.0721,-1.0782,-1.0789,-1.0783,-1.0853,-1.0854,-1.0832,-1.0798,-1.0774,-1.077,-1.0816,-1.0816,-1.0816,0,-1.0019,-1.0077,-1.0133,-1.0223,-1.0244,-1.0274,-1.0344,-1.0387,-1.0459,-1.0495,-1.0544,-1.0595,-1.0643,-1.0667,-1.0736,-1.073,-1.0763,-1.0798,-1.08,-1.0809,-1.0834,-1.0808,-1.077,-1.0769,-1.0818,-1.0817,-1.0817,0,-0.9956,-1.0049,-1.0095,-1.0128,-1.0233,-1.0253,-1.0298,-1.0371,-1.0408,-1.047,-1.0496,-1.0561,-1.0598,-1.0649,-1.0718,-1.0728,-1.078,-1.0809,-1.0813,-1.0811,-1.0821,-1.082,-1.0789,-1.084,-1.084,-1.084,-1.084,0,-0.9933,-0.9965,-1.0069,-1.0097,-1.0136,-1.0212,-1.0249,-1.03,-1.0364,-1.0405,-1.047,-1.0507,-1.0595,-1.0644,-1.0699,-1.0749,-1.0764,-1.0796,-1.0811,-1.0791,-1.0787,-1.0814,-1.0817,-1.084,-1.084,-1.084,-1.084,0,-0.9869,-0.994,-0.9996,-1.0091,-1.0116,-1.0141,-1.0223,-1.0255,-1.031,-1.0362,-1.0378,-1.0465,-1.0527,-1.06,-1.0685,-1.0722,-1.0768,-1.0788,-1.0743,-1.0752,-1.0752,-1.0752,-1.0738,-1.0742,-1.0788,-1.0788,-1.0787,0,-0.985,-0.9877,-0.9975,-1.0007,-1.005,-1.0101,-1.014,-1.0217,-1.0256,-1.0341,-1.0362,-1.0428,-1.0485,-1.058,-1.0652,-1.0718,-1.0742,-1.0733,-1.0753,-1.0733,-1.0745,-1.0743,-1.0747,-1.0728,-1.0727,-1.0726,-1.0726,0,-0.9809,-0.9844,-0.9897,-0.9964,-1.0009,-1.0066,-1.0125,-1.0148,-1.0237,-1.0278,-1.0341,-1.0385,-1.0473,-1.0539,-1.0614,-1.0663,-1.071,-1.0719,-1.0724,-1.0705,-1.0678,-1.0695,-1.0731,-1.0719,-1.072,-1.072,-1.072,-1.0721,-0.9769,-0.9797,-0.9871,-0.993,-0.9983,-1.0037,-1.0072,-1.0132,-1.0186,-1.0263,-1.0306,-1.0368,-1.0443,-1.0549,-1.0596,-1.0648,-1.0665,-1.0671,-1.0673,-1.0673,-1.0669,-1.0669,-1.0662,-1.0662,-1.0662,-1.0663,-1.0663,0,-0.9733,-0.9785,-0.9838,-0.9919,-0.9966,-1.0006,-1.0074,-1.0111,-1.0165,-1.023,-1.0286,-1.036,-1.0425,-1.0502,-1.0573,-1.06,-1.0623,-1.0616,-1.0615,-1.0626,-1.0649,-1.0638,-1.0596,-1.0596,-1.0596,-1.0596,-1.0596,-1.0596,-0.972,-0.9769,-0.9813,-0.9891,-0.9943,-1.0005,-1.0041,-1.0092,-1.0145,-1.0225,-1.0279,-1.0329,-1.04,-1.0477,-1.0539,-1.0561,-1.0584,-1.0571,-1.0598,-1.0618,-1.0624,-1.063,-1.062,-1.0575,-1.0575,-1.0572,-1.0572,-1.0572]}]]